MSR4059 ZSHC-HECA

Flight info

Callsign MSR4059
Flight time N/A
Altitude 34100
Route NIVIK W135 DOGVI W545 VEMEX W163 HFE B208 LAXAG W28 ATBUG W66 NUKTI B215 FKG A368 SARIN N161 LEYLA N644 LAGAS DCT NOLGA DCT GONPU DCT ART DCT TBN UW706 SIV UA285 SELVI DCT ERGEP DCT KETEK DCT KULOL DCT TOMBI M855 RASDA A16 CVO
Aircraft A359/H-SDE2E3GHIJ3J4J5LM1ORWXY/LB1D1

Departure

Time 2026-05-04 15:06
Airport Hangzhou Xiaoshan International Airport (ZSHC)

Arrival

Time N/A
Airport Cairo International Airport (HECA)
Time Latitude Longitude Altitude Speed Heading
2026-05-04 14:22 30.23760 120.41922 38 ft 0 kts 129°
2026-05-04 14:52 30.23762 120.41920 37 ft 2 kts 129°
2026-05-04 14:52 30.23774 120.41903 36 ft 3 kts 129°
2026-05-04 14:53 30.23787 120.41884 36 ft 3 kts 129°
2026-05-04 14:53 30.23803 120.41861 36 ft 4 kts 129°
2026-05-04 14:53 30.23822 120.41835 35 ft 4 kts 129°
2026-05-04 14:53 30.23862 120.41821 36 ft 8 kts 224°
2026-05-04 14:54 30.23874 120.41836 36 ft 0 kts 248°
2026-05-04 14:55 30.23872 120.41827 37 ft 4 kts 257°
2026-05-04 14:55 30.23878 120.41790 38 ft 5 kts 290°
2026-05-04 14:55 30.23907 120.41758 37 ft 7 kts 339°
2026-05-04 14:56 30.23930 120.41768 38 ft 4 kts 27°
2026-05-04 14:56 30.24019 120.41937 38 ft 15 kts 62°
2026-05-04 14:56 30.24068 120.42047 38 ft 16 kts 63°
2026-05-04 14:57 30.24130 120.42189 38 ft 23 kts 63°
2026-05-04 14:57 30.24202 120.42353 38 ft 27 kts 63°
2026-05-04 14:57 30.24289 120.42550 38 ft 27 kts 63°
2026-05-04 14:57 30.24375 120.42744 38 ft 27 kts 62°
2026-05-04 14:58 30.24460 120.42935 38 ft 27 kts 63°
2026-05-04 14:58 30.24544 120.43124 38 ft 26 kts 63°
2026-05-04 14:58 30.24591 120.43230 39 ft 8 kts 61°
2026-05-04 14:58 30.24644 120.43262 38 ft 15 kts
2026-05-04 14:59 30.24753 120.43373 39 ft 23 kts 63°
2026-05-04 14:59 30.24832 120.43549 37 ft 25 kts 63°
2026-05-04 14:59 30.24992 120.43912 37 ft 19 kts 63°
2026-05-04 15:00 30.25024 120.43984 38 ft 0 kts 63°
2026-05-04 15:01 30.25055 120.44024 38 ft 0 kts 29°
2026-05-04 15:01 30.25087 120.44026 39 ft 0 kts 351°
2026-05-04 15:04 30.25100 120.44023 39 ft 9 kts 346°
2026-05-04 15:05 30.25162 120.43861 38 ft 0 kts 242°
2026-05-04 15:05 30.25139 120.43811 37 ft 30 kts 242°
2026-05-04 15:05 30.24942 120.43366 39 ft 94 kts 243°
2026-05-04 15:06 30.24554 120.42488 36 ft 149 kts 243°
2026-05-04 15:06 30.24011 120.41272 252 ft 174 kts 243°
2026-05-04 15:06 30.23473 120.40044 1068 ft 165 kts 240°
2026-05-04 15:07 30.22383 120.37600 1852 ft 187 kts 239°
2026-05-04 15:07 30.21749 120.36188 2033 ft 210 kts 240°
2026-05-04 15:07 30.21042 120.34607 2246 ft 232 kts 240°
2026-05-04 15:08 30.19684 120.31551 2973 ft 252 kts 241°
2026-05-04 15:08 30.18874 120.29725 3522 ft 258 kts 242°
2026-05-04 15:08 30.18060 120.27893 3824 ft 260 kts 242°
2026-05-04 15:08 30.17221 120.26004 3883 ft 262 kts 242°
2026-05-04 15:09 30.16396 120.24153 3888 ft 262 kts 242°
2026-05-04 15:09 30.15671 120.22221 3879 ft 263 kts 253°
2026-05-04 15:09 30.15562 120.20119 3885 ft 264 kts 279°
2026-05-04 15:10 30.17685 120.16777 3889 ft 269 kts 328°
2026-05-04 15:10 30.19322 120.15722 3975 ft 270 kts 331°
2026-05-04 15:10 30.22662 120.13676 5160 ft 271 kts 331°
2026-05-04 15:11 30.24323 120.12649 5880 ft 270 kts 331°
2026-05-04 15:11 30.25973 120.11614 6589 ft 270 kts 332°
2026-05-04 15:11 30.27632 120.10570 7216 ft 273 kts 332°
2026-05-04 15:11 30.29309 120.09512 7687 ft 276 kts 332°
2026-05-04 15:12 30.30981 120.08457 7900 ft 278 kts 332°
2026-05-04 15:12 30.32680 120.07384 7882 ft 278 kts 332°
2026-05-04 15:12 30.34379 120.06310 7864 ft 279 kts 332°
2026-05-04 15:12 30.36082 120.05233 7864 ft 279 kts 332°
2026-05-04 15:13 30.37784 120.04157 7861 ft 279 kts 332°
2026-05-04 15:13 30.39486 120.03079 7862 ft 279 kts 332°
2026-05-04 15:13 30.41192 120.01999 7872 ft 279 kts 332°
2026-05-04 15:13 30.42896 120.00921 8082 ft 280 kts 332°
2026-05-04 15:14 30.44619 119.99833 8693 ft 283 kts 332°
2026-05-04 15:14 30.46345 119.98744 9432 ft 283 kts 332°
2026-05-04 15:14 30.48081 119.97643 10121 ft 286 kts 332°
2026-05-04 15:14 30.49869 119.96509 10440 ft 301 kts 331°
2026-05-04 15:15 30.51764 119.95308 10682 ft 319 kts 331°
2026-05-04 15:15 30.53759 119.94042 10926 ft 335 kts 331°
2026-05-04 15:15 30.55824 119.92731 11158 ft 350 kts 331°
2026-05-04 15:16 30.60264 119.89913 11747 ft 374 kts 331°
2026-05-04 15:16 30.62611 119.88558 12225 ft 379 kts 339°
2026-05-04 15:16 30.67869 119.88453 13258 ft 390 kts 12°
2026-05-04 15:17 30.70507 119.89265 13753 ft 394 kts 14°
2026-05-04 15:17 30.75947 119.89844 14614 ft 396 kts 348°
2026-05-04 15:17 30.78546 119.88859 14858 ft 392 kts 331°
2026-05-04 15:18 30.80899 119.87239 15193 ft 394 kts 325°
2026-05-04 15:18 30.83145 119.85403 15696 ft 396 kts 322°
2026-05-04 15:18 30.85347 119.83468 16213 ft 398 kts 321°
2026-05-04 15:19 30.89755 119.79513 17229 ft 402 kts 320°
2026-05-04 15:19 30.91995 119.77531 17735 ft 405 kts 321°
2026-05-04 15:19 30.96514 119.73596 18666 ft 410 kts 321°
2026-05-04 15:20 30.98811 119.71613 19114 ft 412 kts 321°
2026-05-04 15:20 31.01124 119.69620 19537 ft 414 kts 320°
2026-05-04 15:20 31.03444 119.67620 19729 ft 414 kts 320°
2026-05-04 15:20 31.05763 119.65620 19762 ft 415 kts 320°
2026-05-04 15:21 31.08081 119.63620 19766 ft 415 kts 321°
2026-05-04 15:21 31.10409 119.61608 19758 ft 416 kts 321°
2026-05-04 15:21 31.15065 119.57581 19754 ft 416 kts 321°
2026-05-04 15:22 31.17392 119.55567 19758 ft 416 kts 321°
2026-05-04 15:22 31.19693 119.53573 20023 ft 418 kts 321°
2026-05-04 15:22 31.24383 119.49513 20991 ft 421 kts 321°
2026-05-04 15:23 31.26744 119.47462 21457 ft 423 kts 320°
2026-05-04 15:23 31.29115 119.45398 21935 ft 426 kts 320°
2026-05-04 15:23 31.31498 119.43323 22401 ft 428 kts 320°
2026-05-04 15:23 31.33898 119.41232 22873 ft 431 kts 320°
2026-05-04 15:24 31.38738 119.37014 23787 ft 436 kts 320°
2026-05-04 15:24 31.43621 119.32756 24644 ft 439 kts 320°
2026-05-04 15:25 31.46081 119.30609 25040 ft 441 kts 319°
2026-05-04 15:25 31.48547 119.28454 25431 ft 443 kts 319°
2026-05-04 15:25 31.51025 119.26288 25823 ft 445 kts 319°
2026-05-04 15:26 31.56017 119.21926 26643 ft 448 kts 318°
2026-05-04 15:26 31.58491 119.19764 27007 ft 450 kts 318°
2026-05-04 15:26 31.63519 119.15299 27734 ft 454 kts 317°
2026-05-04 15:27 31.66028 119.13039 28096 ft 455 kts 316°
2026-05-04 15:27 31.70819 119.08169 28816 ft 456 kts 312°
2026-05-04 15:28 31.75558 119.03142 29433 ft 461 kts 312°
2026-05-04 15:28 31.77899 119.00574 29747 ft 459 kts 308°
2026-05-04 15:28 31.81682 118.94707 30517 ft 447 kts 296°
2026-05-04 15:29 31.83034 118.91396 30586 ft 449 kts 288°
2026-05-04 15:30 31.83944 118.77135 32072 ft 436 kts 262°
2026-05-04 15:30 31.82869 118.66617 33090 ft 431 kts 264°
2026-05-04 15:31 31.82194 118.59574 33412 ft 436 kts 264°
2026-05-04 15:31 31.81869 118.56038 33820 ft 430 kts 264°
2026-05-04 15:32 31.80931 118.45699 34711 ft 424 kts 264°
2026-05-04 15:32 31.80303 118.38808 35066 ft 424 kts 264°
2026-05-04 15:33 31.79671 118.31943 35309 ft 427 kts 264°
2026-05-04 15:34 31.79148 118.21520 35842 ft 425 kts 269°
2026-05-04 15:34 31.79139 118.18046 36000 ft 425 kts 269°
2026-05-04 15:34 31.79103 118.11080 36130 ft 429 kts 269°
2026-05-04 15:35 31.78939 118.00484 36132 ft 433 kts 268°
2026-05-04 15:36 31.78751 117.89912 36134 ft 433 kts 268°
2026-05-04 15:36 31.78617 117.82831 36132 ft 433 kts 268°
2026-05-04 15:37 31.78480 117.75743 36132 ft 433 kts 268°
2026-05-04 15:37 31.78339 117.68654 36131 ft 432 kts 268°
2026-05-04 15:38 31.78194 117.61613 36133 ft 430 kts 268°
2026-05-04 15:38 31.78048 117.54634 36133 ft 430 kts 268°
2026-05-04 15:39 31.77898 117.47612 36126 ft 430 kts 268°
2026-05-04 15:40 31.77817 117.37041 36123 ft 432 kts 274°
2026-05-04 15:40 31.79111 117.30133 36121 ft 436 kts 288°
2026-05-04 15:41 31.82087 117.23868 36138 ft 445 kts 303°
2026-05-04 15:41 31.85343 117.19160 36131 ft 448 kts 305°
2026-05-04 15:42 31.89414 117.13595 36120 ft 449 kts 306°